Lancaster, OH

8:23 AM EST on February 09, 2016 (GMT -0500)
Fairfield County

Weather History for KLHQ - October, 2013

Change the Weather History Date:

Monday, October 21, 2013

  Actual Average Record
Temperature  
Mean Temperature 50 °F -  
Max Temperature 66 °F 60 °F 86 °F (1953)
Min Temperature 37 °F 36 °F 17 °F (1969)
Degree Days  
Heating Degree Days 14    
Moisture  
Dew Point 39 °F    
Average Humidity 61    
Maximum Humidity 89    
Minimum Humidity 36    
Precipitation  
Precipitation 0.00 in - - ()
Sea Level Pressure  
Sea Level Pressure 29.97 in    
Wind  
Wind Speed 5 mph (SSW)    
Max Wind Speed 16 mph    
Max Gust Speed 23 mph    
Visibility 10 miles    
Events      
Averages and records for this station are not official NWS values.
T = Trace of Precipitation, MM = Missing Value Source: NWS Daily Summary

Daily Weather History Graph

Daily Weather History Graph

Search for Another Location

Airport or City:

Trip Planner

Search our weather history database for the weather conditions in past years. The results will help you decide how hot, cold, wet, or windy it might be!

Date:

Astronomy

Oct. 21, 2013 Rise Set
Actual Time 7:47 AM EDT 6:42 PM EDT
Civil Twilight 7:20 AM EDT 7:09 PM EDT
Nautical Twilight 6:48 AM EDT 7:41 PM EDT
Astronomical Twilight 6:17 AM EDT 8:12 PM EDT
Moon 8:34 PM EDT (10/21) 10:20 AM EDT (10/21)
Length of Visible Light 11h 49m
Length of Day
10h 54m
Waning Gibbous, 93% of the Moon is Illuminated
Oct 21
Waning Gibbous
Oct 26
Last Quarter
Nov 3
New
Nov 10
First Quarter
Nov 17
Full

Hourly Weather History & Observations

Time (EDT) Temp. Windchill Dew Point Humidity Pressure Visibility Wind Dir Wind Speed Gust Speed Precip Events Conditions
12:53 AM 45.0 °F - 37.0 °F 74% 30.02 in 10.0 mi Calm Calm - N/A   Clear
1:53 AM 46.9 °F - 37.0 °F 68% 30.01 in 10.0 mi South 3.5 mph - N/A   Clear
2:53 AM 46.9 °F - 37.0 °F 68% 30.02 in 10.0 mi South 4.6 mph - N/A   Clear
3:53 AM 37.0 °F - 34.0 °F 89% 30.03 in 10.0 mi Calm Calm - N/A   Clear
4:53 AM 39.0 °F - 36.0 °F 89% 30.03 in 10.0 mi Calm Calm - N/A   Clear
5:53 AM 39.9 °F 36.7 °F 36.0 °F 86% 30.04 in 10.0 mi SSE 4.6 mph - N/A   Clear
6:53 AM 37.9 °F 35.5 °F 35.1 °F 89% 30.04 in 10.0 mi SSE 3.5 mph - N/A   Clear
7:53 AM 39.0 °F 36.8 °F 35.1 °F 86% 30.03 in 10.0 mi SSE 3.5 mph - N/A   Clear
8:53 AM 43.0 °F 41.3 °F 39.0 °F 86% 30.04 in 10.0 mi SE 3.5 mph - N/A   Clear
9:53 AM 53.1 °F - 39.9 °F 61% 30.04 in 10.0 mi SSW 6.9 mph - N/A   Clear
10:53 AM 55.9 °F - 39.9 °F 55% 30.03 in 10.0 mi SW 10.4 mph - N/A   Clear
11:53 AM 59.0 °F - 41.0 °F 51% 30.01 in 10.0 mi WSW 8.1 mph 18.4 mph N/A   Clear
12:53 PM 61.0 °F - 42.1 °F 50% 29.99 in 10.0 mi SW 8.1 mph - N/A   Clear
1:53 PM 63.0 °F - 42.1 °F 46% 29.96 in 10.0 mi SSW 6.9 mph - N/A   Clear
2:53 PM 64.0 °F - 39.0 °F 40% 29.92 in 10.0 mi SSW 15.0 mph 23.0 mph N/A   Clear
3:53 PM 64.9 °F - 37.0 °F 36% 29.91 in 10.0 mi SSW 16.1 mph 21.9 mph N/A   Clear
4:53 PM 64.0 °F - 37.0 °F 37% 29.90 in 10.0 mi SSW 11.5 mph 19.6 mph N/A   Overcast
5:53 PM 62.1 °F - 39.0 °F 43% 29.91 in 10.0 mi SSW 6.9 mph - N/A   Overcast
6:53 PM 61.0 °F - 39.0 °F 44% 29.91 in 10.0 mi SSW 5.8 mph - N/A   Overcast
7:53 PM 60.1 °F - 39.0 °F 46% 29.91 in 10.0 mi SSW 4.6 mph - N/A   Overcast
8:53 PM 59.0 °F - 39.0 °F 48% 29.90 in 10.0 mi SW 8.1 mph - N/A   Overcast
9:53 PM 57.9 °F - 39.0 °F 49% 29.89 in 10.0 mi SW 6.9 mph - N/A   Overcast
10:53 PM 59.0 °F - 39.0 °F 48% 29.89 in 10.0 mi SW 6.9 mph - N/A   Overcast
11:53 PM 55.9 °F - 46.0 °F 69% 29.90 in 10.0 mi WNW 8.1 mph - N/A   Overcast